Showing default

GALILEO 7 (263), 40544

Orbit data source: Space-Track

GALILEO 7 (263), 40544 is a payload satellite owned by GNSS Agency (ESA) that was launched on Fri, 27 Mar 2015 UTC via a SOYUZ-ST-B launch vehicle from the French Guiana (FRGUI). Payload-class satellites include a variety of spacecraft equipped with specific instruments for various scientific and technological missions. These include communications satellites like Starlink; space stations such as the ISS; scientific satellites like the Hubble; Earth observation satellites from companies like Planet Labs, Umbra, and HawkEye 360; GPS; miniature CubeSats for education and research; and military/defense satellites.

Loading next visibility...
Identifier
40544, 2015-017A
Orbit
Active
Country
Flag of ESAESA
Related business
Manufacturer
OHB
Mission
Operational Civil Navigation
Bus & Motor
GALILEOSAT, AOCS
Mass
733 kg wet, 660 kg dry
Launch date (UTC)
2015-03-27 (11 years ago)
Launch vehicle
SOYUZ-ST-B
Launch site
French Guiana (FRGUI)
Object type
Payload
Rocket body
Debris
Shape & HBR
Box + 2 Pan, 7.3 m
Radar Cross Section
9.223 m², Large (>1 m²)

Expand to show TLE details & history
Last TLE update: 3 days ago

TLE from 3 days ago
0 GALILEO 7 (263)
1 40544U 15017A   25336.70709446 -.00000065  00000-0  00000+0 0  9998
2 40544  56.8490 346.9540 0006521 268.5764  91.3871  1.70475735 65856
Epoch: 2025-12-02T16:58Z
TLE epoch observation values (Epoch: 2025-12-02T16:58:12.961Z)
Latitude
-0.00003°
Longitude
20.61911°
Altitude
23,222.786 km
Speed
3.67 km/s
True Right ascension
23h 07m 50s
True Declination
0° 00' 00"
Sunlit
Object was in daylight at epoch
Visualization orbit readout
Latitude
Unknown
Longitude
Unknown
Altitude
Unknown
Speed
Unknown
Apparent Right ascension
Unknown
Apparent Declination
Unknown
Sunlit
N/A
Visualization observer readout
Local Sidereal Time
06:27:44
Azimuth
Unknown
Elevation
Unknown
Doppler factor
Unknown
Orbital elements
Apogee altitude
23,241.226 km
Perigee altitude
23,202.622 km
Semi-major axis
29,600.061 km
Eccentricity
0.00065
Inclination
56.849°
RAAN
346.954°
Arg. of periapsis
268.5764°
True anomaly
91.4618°
Mean anomaly
91.3871°
Eccentric anomaly
91.42445°
Mean motion
0.42619 °/min
Orbital period
844.69 mins
BSTAR
0
Loading maneuver chart data...
Computing Atmospheric mass density...
Loading historical data...
Loading historical data...
Loading historical data...
Loading historical data...
Loading historical data...
Loading historical data...
Loading historical data...
Other satellites on launch #17 in the year 2015 (2015-03-27 UTC)

Documentation

Showing up to 5 results
|